#timestamp,LO_Frequency,Hit,StdDev 
1596528015.5,286047005.1,N
1596528035.4,286047005.5,N
1596528055.2,286047004.4,N
1596528075.0,286046998.2,N
1596528075.9,286046998.2,N
1596528095.8,286047000.4,N
1596528115.6,286047001.0,N
1596528135.4,286047001.2,N
1596528155.3,286046998.8,N
1596528175.1,286046998.2,N
1596528195.9,286046997.7,N
1596528215.7,286046997.6,N
1596528235.5,286046998.4,N
1596528255.4,286046996.1,N
1596528275.2,286047001.1,N
1596528295.0,286046998.7,N
1596528295.9,286046998.7,N
1596528315.8,286046997.3,N
1596528335.6,286046994.0,N
1596528355.5,286046995.5,N
1596528405.3,286046993.4,E
1596528415.3,286046999.2,N
1596528435.1,286046996.9,P
1596528436.0,286046996.9,N
1596528455.8,286047001.9,N
1596528475.7,286047002.8,N
1596528495.5,286047002.4,N
1596528515.3,286047007.5,Y
1596528535.2,286047009.2,P
1596528555.0,286047010.7,N
1596528555.9,286047010.7,N
1596528575.8,286047012.0,N
1596528595.6,286047014.5,Y
1596528615.4,286047005.3,P
1596528635.3,286047005.1,P
1596528655.1,286047005.5,P
1596528675.8,286047005.0,Y
1596528695.7,286047003.0,P
1596528715.2,286047005.2,P
1596528735.0,286047003.2,N
1596528735.9,286047003.2,N
1596528755.8,286047001.5,N
1596528775.6,286047001.9,N
1596528795.4,286046999.3,N
1596528815.3,286046998.5,N
1596528835.1,286046997.6,N
1596528855.8,286046993.3,N
1596528875.7,286046994.9,N
1596528895.5,286046992.7,N
1596528915.4,286046990.2,N
1596528935.2,286046990.2,N
1596528955.0,286046994.1,N
1596528955.9,286046994.1,N
1596528975.8,286046995.8,N
1596528995.6,286046996.0,N
1596529015.4,286046993.6,N
1596529035.3,286046997.5,N
1596529055.1,286046999.8,N
1596529075.8,286047001.5,N
1596529095.7,286047006.0,N
1596529115.5,286047002.5,N
1596529135.4,286047001.7,N
1596529155.2,286047007.6,N
1596529175.0,286047001.3,N
1596529175.9,286047001.3,N
1596529195.8,286047001.0,N
1596529215.6,286047001.6,N
1596529235.4,286047000.9,N
1596529255.3,286046991.9,N
1596529275.1,286046991.6,N
1596529295.9,286046990.1,N
1596529315.7,286046990.4,N
1596529335.5,286046989.4,N
1596529355.4,286046985.8,N
1596529375.2,286046989.8,N
1596529395.0,286046985.4,N
1596529396.0,286046985.4,N
1596529415.8,286046988.3,N
1596529435.6,286046989.1,N
1596529455.5,286046987.1,N
1596529475.3,286046989.0,N
1596529495.1,286046988.7,N
1596529515.9,286046996.3,N
1596529535.7,286046999.2,N
1596529555.5,286046993.8,N
1596529575.4,286046990.1,N
1596529595.2,286046999.5,N
1596529615.1,286046994.0,N
1596529616.0,286046994.0,N
1596529635.8,286046993.6,N
1596529655.6,286046989.1,N
1596529675.5,286046985.8,N
1596529695.3,286046984.2,N
1596529715.1,286046993.2,N
1596529735.9,286046987.7,N
1596529755.7,286046984.8,Y
1596529775.6,286046992.3,P
1596529795.4,286046988.7,P
1596529815.2,286046987.8,P
1596529835.1,286046986.8,Y
1596529836.0,286046986.8,P
1596529855.8,286046994.7,P
1596529875.7,286046992.1,N
1596529895.5,286047002.0,N
1596529915.3,286047008.0,N
1596529935.2,286047001.4,N
1596529955.0,286047001.1,N
1596529955.9,286047001.1,N
1596529975.7,286047002.8,N
1596529995.6,286046995.2,N
1596530015.4,286046991.9,N
1596530035.3,286046988.8,N
1596530055.1,286046989.5,N
1596530056.0,286046989.5,N
1596530075.8,286046992.4,N
1596530095.7,286046994.2,N
1596530115.5,286046992.4,N
1596530135.3,286046993.6,N
1596530155.2,286046992.2,N
1596530175.0,286046991.9,N
1596530175.9,286046991.9,N
1596530195.8,286046994.5,N
1596530215.6,286046989.4,N
1596530235.4,286046991.5,N
1596530255.3,286046986.9,N
1596530275.1,286046988.5,N
1596530295.8,286046987.5,N
1596530315.7,286046991.0,N
1596530335.5,286046986.0,N
1596530355.4,286046987.6,N
1596530375.2,286046986.7,N
1596530395.0,286046986.8,N
1596530395.9,286046986.8,N
1596530415.8,286046982.1,Y
1596530435.6,286046991.2,P
1596530455.4,286046992.6,P
1596530475.3,286046989.7,P
1596530495.1,286046987.2,Y
1596530515.9,286046998.6,P
1596530535.7,286046996.6,N
1596530555.5,286046998.5,N
1596530575.4,286047003.1,N
1596530595.2,286046995.1,N
1596530615.0,286046990.5,N
1596530616.0,286046990.5,N
1596530635.8,286046991.9,N
1596530655.6,286046992.8,N
1596530675.5,286046991.3,N
1596530695.3,286046995.9,N
1596530715.1,286046996.1,N
1596530735.9,286046993.3,N
1596530755.7,286046992.7,N
1596530775.5,286046992.1,N
1596530795.4,286046993.1,N
1596530815.2,286046997.0,N
1596530835.1,286046999.0,N
1596530836.0,286046999.0,N
1596530855.8,286046995.2,N
1596530875.6,286046993.9,N
1596530895.5,286046995.2,N
1596530915.3,286047000.6,N
1596530935.2,286047002.0,N
1596530955.9,286047000.3,N
1596530975.7,286047005.2,N
1596530995.6,286047003.8,N
1596531015.4,286047007.6,N
1596531035.2,286047004.9,N
1596531055.1,286047006.3,N
1596531056.0,286047006.3,N
1596531075.8,286047004.2,N
1596531095.7,286046997.2,N
1596531115.5,286047002.1,N
1596531135.3,286046996.0,N
1596531155.2,286046991.7,N
1596531175.0,286046995.5,N
1596531175.9,286046995.5,N
1596531195.7,286047002.4,N
1596531215.6,286047001.9,N
1596531235.4,286047000.2,N
1596531255.3,286047002.8,N
1596531275.1,286047000.9,N
1596531276.0,286047000.9,N
1596531295.8,286047005.8,N
1596531315.7,286047009.1,N
1596531335.5,286047008.0,N
1596531355.3,286047007.8,N
1596531375.2,286047007.3,N
1596531395.0,286047001.7,N
1596531395.9,286047001.7,N
1596531415.8,286047002.7,N
1596531435.6,286047004.2,N
1596531455.4,286047007.9,N
1596531475.3,286047009.2,N
1596531495.1,286047012.0,N
1596531515.9,286047007.0,N
1596531535.7,286047006.4,N
1596531555.5,286047007.8,N
1596531575.4,286047009.2,N
1596531595.2,286047009.2,N
